TimeBST,TemperatureF,Dew PointF,Humidity,Sea Level PressureIn,VisibilityMPH,Wind Direction,Wind SpeedMPH,Gust SpeedMPH,PrecipitationIn,Events,Conditions,WindDirDegrees,DateUTC
12:20 AM,51.8,44.6,76,29.47,6.2,South,5.8,-,N/A,,Overcast,170,2013-05-08 23:20:00
12:50 AM,50.0,42.8,76,29.47,6.2,South,9.2,-,N/A,,Scattered Clouds,170,2013-05-08 23:50:00
1:20 AM,48.2,39.2,71,29.47,6.2,South,11.5,-,N/A,,Unknown,180,2013-05-09 00:20:00
1:50 AM,48.2,39.2,71,29.47,6.2,South,16.1,-,N/A,,Unknown,180,2013-05-09 00:50:00
2:20 AM,46.4,39.2,76,29.47,6.2,SSW,9.2,-,N/A,,Unknown,200,2013-05-09 01:20:00
2:50 AM,46.4,39.2,76,29.44,-9999.0,SSW,11.5,-,N/A,,Clear,200,2013-05-09 01:50:00
3:20 AM,44.6,39.2,81,29.44,-9999.0,South,9.2,-,N/A,,Clear,180,2013-05-09 02:20:00
3:50 AM,42.8,39.2,87,29.47,-9999.0,West,2.3,-,N/A,,Clear,280,2013-05-09 02:50:00
4:20 AM,39.2,33.8,81,29.47,-9999.0,Calm,Calm,-,N/A,,Clear,0,2013-05-09 03:20:00
4:50 AM,41.0,37.4,87,29.44,-9999.0,SSW,6.9,-,N/A,,Clear,200,2013-05-09 03:50:00
5:20 AM,46.4,39.2,76,29.44,6.2,South,12.7,-,N/A,,Partly Cloudy,190,2013-05-09 04:20:00
5:50 AM,44.6,39.2,81,29.44,6.2,SSW,9.2,-,N/A,,Partly Cloudy,200,2013-05-09 04:50:00
6:20 AM,44.6,39.2,81,29.47,6.2,Variable,2.3,-,N/A,,Partly Cloudy,0,2013-05-09 05:20:00
6:50 AM,48.2,41.0,76,29.47,6.2,WSW,4.6,-,N/A,,Partly Cloudy,250,2013-05-09 05:50:00
7:20 AM,50.0,41.0,71,29.47,6.2,Variable,3.5,-,N/A,,Partly Cloudy,0,2013-05-09 06:20:00
7:50 AM,51.8,39.2,62,29.47,6.2,Variable,3.5,-,N/A,,Partly Cloudy,0,2013-05-09 06:50:00
8:20 AM,51.8,39.2,62,29.47,6.2,SW,5.8,-,N/A,,Partly Cloudy,220,2013-05-09 07:20:00
8:50 AM,53.6,39.2,58,29.47,6.2,South,11.5,-,N/A,,Partly Cloudy,190,2013-05-09 07:50:00
9:20 AM,55.4,37.4,51,29.47,6.2,SSW,12.7,-,N/A,,Partly Cloudy,200,2013-05-09 08:20:00
9:50 AM,55.4,37.4,51,29.47,6.2,SSW,15.0,-,N/A,,Partly Cloudy,200,2013-05-09 08:50:00
10:20 AM,53.6,35.6,51,29.47,6.2,SSW,13.8,-,N/A,,Partly Cloudy,210,2013-05-09 09:20:00
10:50 AM,55.4,35.6,47,29.47,6.2,South,12.7,-,N/A,,Partly Cloudy,180,2013-05-09 09:50:00
11:20 AM,57.2,37.4,48,29.47,6.2,SSW,13.8,-,N/A,,Scattered Clouds,200,2013-05-09 10:20:00
11:50 AM,59.0,35.6,42,29.47,6.2,South,13.8,-,N/A,,Scattered Clouds,180,2013-05-09 10:50:00
12:20 PM,59.0,35.6,42,29.47,6.2,South,15.0,-,N/A,,Scattered Clouds,190,2013-05-09 11:20:00
12:50 PM,57.2,37.4,48,29.44,6.2,South,12.7,-,N/A,,Scattered Clouds,180,2013-05-09 11:50:00
1:20 PM,59.0,35.6,42,29.44,6.2,South,12.7,-,N/A,,Scattered Clouds,170,2013-05-09 12:20:00
1:50 PM,59.0,33.8,39,29.44,6.2,South,4.6,-,N/A,,Scattered Clouds,170,2013-05-09 12:50:00
2:20 PM,57.2,33.8,41,29.44,6.2,East,4.6,-,N/A,,Scattered Clouds,100,2013-05-09 13:20:00
2:50 PM,53.6,39.2,58,29.44,6.2,NE,9.2,-,N/A,,Scattered Clouds,40,2013-05-09 13:50:00
3:20 PM,53.6,39.2,58,29.44,6.2,NNE,10.4,-,N/A,,Scattered Clouds,30,2013-05-09 14:20:00
3:50 PM,53.6,42.8,67,29.44,6.2,NNE,8.1,-,N/A,Rain,Light Rain Showers,30,2013-05-09 14:50:00
4:20 PM,51.8,42.8,71,29.42,6.2,North,9.2,-,N/A,Rain,Light Rain Showers,10,2013-05-09 15:20:00
4:50 PM,51.8,44.6,76,29.42,6.2,NNE,8.1,-,N/A,Rain,Light Rain Showers,20,2013-05-09 15:50:00
5:20 PM,53.6,42.8,67,29.42,6.2,ESE,6.9,-,N/A,Rain,Light Rain Showers,110,2013-05-09 16:20:00
5:50 PM,53.6,42.8,67,29.44,6.2,Variable,3.5,-,N/A,,Scattered Clouds,0,2013-05-09 16:50:00
6:20 PM,53.6,44.6,72,29.42,6.2,Variable,3.5,-,N/A,,Scattered Clouds,0,2013-05-09 17:20:00
6:50 PM,53.6,39.2,58,29.42,6.2,ESE,8.1,-,N/A,,Scattered Clouds,120,2013-05-09 17:50:00
7:20 PM,51.8,39.2,62,29.42,6.2,SE,9.2,-,N/A,,Scattered Clouds,130,2013-05-09 18:20:00
7:50 PM,51.8,39.2,62,29.42,6.2,SE,8.1,-,N/A,,Scattered Clouds,130,2013-05-09 18:50:00
8:20 PM,50.0,39.2,66,29.42,6.2,SE,6.9,-,N/A,,Partly Cloudy,130,2013-05-09 19:20:00
8:50 PM,48.2,39.2,71,29.44,6.2,East,6.9,-,N/A,,Partly Cloudy,100,2013-05-09 19:50:00
9:20 PM,46.4,39.2,76,29.44,6.2,East,4.6,-,N/A,,Partly Cloudy,100,2013-05-09 20:20:00
9:50 PM,44.6,39.2,81,29.44,6.2,ESE,4.6,-,N/A,,Unknown,120,2013-05-09 20:50:00
10:20 PM,41.0,37.4,87,29.44,6.2,ENE,3.5,-,N/A,,Unknown,60,2013-05-09 21:20:00
10:50 PM,39.2,37.4,93,29.44,6.2,NNE,3.5,-,N/A,,Unknown,20,2013-05-09 21:50:00
11:20 PM,39.2,37.4,93,29.44,6.2,ENE,3.5,-,N/A,,Unknown,70,2013-05-09 22:20:00
11:50 PM,39.2,37.4,93,29.44,6.2,ENE,4.6,-,N/A,,Unknown,60,2013-05-09 22:50:00